Franklin, PA

7:05 AM EDT on October 21, 2019 (GMT -0400)
Venango Regional

Weather History for KFKL - August, 2019

Change the Weather History Date:

Saturday, August 10, 2019

  Actual Average Record
Temperature  
Mean Temperature 64 °F -  
Max Temperature 73 °F 81 °F 99 °F (1930)
Min Temperature 55 °F 58 °F 43 °F (1927)
Degree Days  
Heating Degree Days 1    
Growing Degree Days 14 (Base 50)    
Moisture  
Dew Point 54 °F    
Average Humidity 73    
Maximum Humidity 93    
Minimum Humidity 53    
Precipitation  
Precipitation 0.00 in - - ()
Sea Level Pressure  
Sea Level Pressure 29.99 in    
Wind  
Wind Speed 5 mph (WNW)    
Max Wind Speed 12 mph    
Max Gust Speed 20 mph    
Visibility 10 miles    
Events      
Averages and records for this station are not official NWS values.
T = Trace of Precipitation, MM = Missing Value Source: NWS Daily Summary

Daily Weather History Graph

Daily Weather History Graph

Search for Another Location

Airport or City:

Astronomy

Aug. 10, 2019 Rise Set
Actual Time 6:23 AM EDT 8:25 PM EDT
Civil Twilight 5:52 AM EDT 8:55 PM EDT
Nautical Twilight 5:15 AM EDT 9:32 PM EDT
Astronomical Twilight 4:35 AM EDT 10:12 PM EDT
Moon 5:07 PM EDT (8/10) 1:57 AM EDT (8/10)
Length of Visible Light 15h 02m
Length of Day
14h 02m
Waxing Gibbous, 79% of the Moon is Illuminated
Aug 10
Waxing Gibbous
Aug 15
Full
Aug 23
Last Quarter
Aug 30
New
Sep 5
First Quarter

Hourly Weather History & Observations

Time (EDT) Temp. Dew Point Humidity Pressure Visibility Wind Dir Wind Speed Gust Speed Precip Events Conditions
12:56 AM 57.9 °F 53.1 °F 84% 29.93 in 10.0 mi SW 5.8 mph - N/A   Clear
1:56 AM 57.0 °F 53.1 °F 87% 29.94 in 10.0 mi SW 5.8 mph - N/A   Clear
2:56 AM 57.0 °F 53.1 °F 87% 29.94 in 10.0 mi West 6.9 mph - N/A   Scattered Clouds
3:56 AM 57.0 °F 53.1 °F 87% 29.94 in 10.0 mi Calm Calm - N/A   Clear
4:56 AM 57.0 °F 53.1 °F 87% 29.95 in 10.0 mi Calm Calm - N/A   Mostly Cloudy
5:56 AM 55.9 °F 53.1 °F 90% 29.95 in 10.0 mi Calm Calm - N/A   Overcast
6:56 AM 55.9 °F 54.0 °F 93% 29.97 in 10.0 mi Calm Calm - N/A   Clear
7:56 AM 60.1 °F 55.9 °F 86% 29.98 in 10.0 mi Calm Calm - N/A   Partly Cloudy
8:56 AM 63.0 °F 57.9 °F 84% 29.99 in 10.0 mi WSW 4.6 mph - N/A   Scattered Clouds
9:56 AM 66.9 °F 55.9 °F 68% 30.00 in 10.0 mi West 6.9 mph - N/A   Scattered Clouds
10:56 AM 69.1 °F 55.9 °F 63% 30.01 in 10.0 mi NW 6.9 mph - N/A   Clear
11:56 AM 70.0 °F 55.0 °F 59% 30.00 in 10.0 mi WNW 11.5 mph - N/A   Partly Cloudy
12:56 PM 71.1 °F 55.0 °F 57% 29.99 in 10.0 mi West 10.4 mph - N/A   Mostly Cloudy
1:56 PM 70.0 °F 55.9 °F 61% 29.99 in 10.0 mi Variable 6.9 mph - N/A   Mostly Cloudy
2:56 PM 71.1 °F 55.9 °F 59% 29.99 in 10.0 mi NW 8.1 mph - N/A   Mostly Cloudy
3:56 PM 73.0 °F 57.0 °F 57% 29.98 in 10.0 mi NW 11.5 mph 16.1 mph N/A   Mostly Cloudy
4:56 PM 72.0 °F 54.0 °F 53% 29.99 in 10.0 mi NW 9.2 mph 19.6 mph N/A   Partly Cloudy
5:56 PM 70.0 °F 52.0 °F 53% 29.99 in 10.0 mi NW 10.4 mph 19.6 mph N/A   Clear
6:56 PM 69.1 °F 51.1 °F 53% 30.01 in 10.0 mi WNW 5.8 mph - N/A   Clear
7:56 PM 66.0 °F 52.0 °F 60% 30.02 in 10.0 mi NW 4.6 mph - N/A   Clear
8:56 PM 63.0 °F 52.0 °F 67% 30.03 in 10.0 mi NW 3.5 mph - N/A   Clear
9:56 PM 57.9 °F 53.1 °F 84% 30.04 in 10.0 mi Calm Calm - N/A   Clear
10:56 PM 55.0 °F 52.0 °F 89% 30.05 in 10.0 mi SW 5.8 mph - N/A   Clear
11:56 PM 57.9 °F 52.0 °F 81% 30.05 in 10.0 mi Calm Calm - N/A   Clear